Weather History for KLXT - September, 2013

Change the Weather History Date:

Sunday, September 15, 2013

  Actual Average (KOJC) Record (KOJC)
Temperature  
Mean Temperature 73 °F 69 °F  
Max Temperature 84 °F 79 °F 99 °F (1939)
Min Temperature 64 °F 59 °F 39 °F (1961)
Degree Days  
Heating Degree Days 0 1  
Month to date heating degree days 6  
Since 1 July heating degree days 7  
Cooling Degree Days 8 5  
Month to date cooling degree days 106  
Year to date cooling degree days 1271  
Growing Degree Days 23 (Base 50)    
Moisture  
Dew Point 59 °F    
Average Humidity 67    
Maximum Humidity 90    
Minimum Humidity 47    
Precipitation  
Precipitation 0.02 in 0.10 in 2.45 in (1958)
Month to date precipitation 2.67  
Year to date precipitation 30.63  
Sea Level Pressure  
Sea Level Pressure 30.02 in    
Wind  
Wind Speed 9 mph (SW)    
Max Wind Speed 17 mph    
Max Gust Speed 26 mph    
Visibility 10 miles    
Events Rain    
T = Trace of Precipitation, MM = Missing Value Source: NWS Daily Summary

Daily Weather History Graph

Daily Weather History Graph

Search for Another Location

Airport or City:

Trip Planner

Search our weather history database for the weather conditions in past years. The results will help you decide how hot, cold, wet, or windy it might be!

Date:

Astronomy

Sep. 15, 2013 Rise Set
Actual Time 6:59 AM CDT 7:25 PM CDT
Civil Twilight 6:32 AM CDT 7:52 PM CDT
Nautical Twilight 6:00 AM CDT 8:23 PM CDT
Astronomical Twilight 5:28 AM CDT 8:55 PM CDT
Moon 4:52 PM CDT (9/15) 2:39 AM CDT (9/15)
Length of Visible Light 13h 19m
Length of Day
12h 26m
Waxing Gibbous, 82% of the Moon is Illuminated
Sep 15
Waxing Gibbous
Sep 19
Full
Sep 26
Last Quarter
Oct 4
New
Oct 11
First Quarter

Hourly Weather History & Observations

Time (CDT) Temp. Heat Index Dew Point Humidity Pressure Visibility Wind Dir Wind Speed Gust Speed Precip Events Conditions
12:53 AM 68.0 °F - 50.0 °F 52% 29.96 in 10.0 mi South 8.1 mph - N/A   Clear
1:53 AM 68.0 °F - 50.0 °F 52% 29.96 in 10.0 mi South 11.5 mph - N/A   Clear
2:53 AM 66.9 °F - 50.0 °F 54% 29.95 in 10.0 mi South 10.4 mph 18.4 mph N/A   Clear
3:53 AM 66.9 °F - 51.1 °F 57% 29.94 in 10.0 mi South 8.1 mph - N/A   Clear
4:53 AM 66.0 °F - 51.1 °F 59% 29.95 in 10.0 mi SSW 8.1 mph - N/A   Clear
5:53 AM 64.9 °F - 51.1 °F 61% 29.95 in 10.0 mi SSW 8.1 mph - N/A   Clear
6:53 AM 64.9 °F - 52.0 °F 63% 29.96 in 10.0 mi South 8.1 mph - N/A   Clear
7:53 AM 64.9 °F - 52.0 °F 63% 29.96 in 10.0 mi SSW 8.1 mph - N/A   Clear
8:53 AM 70.0 °F - 54.0 °F 57% 29.96 in 10.0 mi SSW 13.8 mph 19.6 mph N/A   Clear
9:53 AM 73.0 °F - 55.0 °F 53% 29.98 in 10.0 mi SSW 12.7 mph 19.6 mph N/A   Mostly Cloudy
10:53 AM 77.0 °F - 55.0 °F 47% 30.01 in 10.0 mi West 8.1 mph 16.1 mph N/A   Mostly Cloudy
11:53 AM 72.0 °F - 61.0 °F 68% 30.02 in 10.0 mi Calm Calm - 0.00 in   Overcast
12:53 PM 75.9 °F - 62.1 °F 62% 30.01 in 10.0 mi Calm Calm - 0.00 in   Partly Cloudy
1:53 PM 79.0 °F - 60.1 °F 52% 30.00 in 10.0 mi WSW 3.5 mph - N/A   Clear
2:53 PM 82.9 °F 83.3 °F 61.0 °F 47% 29.98 in 10.0 mi SW 6.9 mph - N/A   Partly Cloudy
3:53 PM 82.9 °F 83.7 °F 62.1 °F 49% 29.98 in 10.0 mi Calm Calm - N/A   Mostly Cloudy
4:53 PM 82.9 °F 84.0 °F 63.0 °F 51% 29.99 in 10.0 mi NNW 6.9 mph - N/A   Mostly Cloudy
5:53 PM 75.9 °F - 66.0 °F 71% 30.01 in 10.0 mi NNE 17.3 mph - 0.00 in   Mostly Cloudy
6:53 PM 73.0 °F - 64.9 °F 76% 30.04 in 10.0 mi NNE 15.0 mph - N/A   Overcast
7:18 PM 69.8 °F - 66.2 °F 88% 30.07 in 6.0 mi NNE 16.1 mph - 0.02 in Rain Light Rain
7:45 PM 69.8 °F - 66.2 °F 88% 30.08 in 7.0 mi NNE 13.8 mph - 0.02 in   Overcast
7:53 PM 69.1 °F - 66.0 °F 90% 30.07 in 7.0 mi NNE 10.4 mph - 0.02 in   Overcast
8:27 PM 68.0 °F - 64.4 °F 88% 30.10 in 7.0 mi NNE 10.4 mph - N/A   Overcast
8:53 PM 68.0 °F - 64.0 °F 87% 30.10 in 9.0 mi NE 10.4 mph - N/A   Scattered Clouds
9:09 PM 68.0 °F - 64.4 °F 88% 30.12 in 10.0 mi NNE 12.7 mph - N/A   Mostly Cloudy
9:53 PM 66.9 °F - 62.1 °F 84% 30.11 in 10.0 mi NNE 17.3 mph 26.5 mph N/A   Overcast
10:53 PM 66.0 °F - 61.0 °F 84% 30.13 in 10.0 mi NE 16.1 mph 23.0 mph N/A   Overcast
11:53 PM 64.0 °F - 60.1 °F 87% 30.13 in 10.0 mi NE 13.8 mph 23.0 mph 0.00 in Rain Light Rain